Weather History for Indianapolis, IN

Change the Weather History Date:

Monday, February 4, 2013

  Actual Average (KEYE) Record (KEYE)
Temperature  
Mean Temperature 28 °F 29 °F  
Max Temperature 37 °F 37 °F 64 °F (2008)
Min Temperature 19 °F 22 °F 0 °F (2007)
Degree Days  
Heating Degree Days 37 36  
Month to date heating degree days 144  
Since 1 July heating degree days 3345  
Cooling Degree Days 0 0  
Month to date cooling degree days 0  
Year to date cooling degree days 0  
Moisture  
Dew Point 20 °F    
Average Humidity 71    
Maximum Humidity 82    
Minimum Humidity 59    
Precipitation  
Precipitation 0.00 in 0.06 in 0.55 in (1997)
Month to date precipitation 0.24  
Year to date precipitation 2.45  
Sea Level Pressure  
Sea Level Pressure 29.89 in    
Wind  
Wind Speed 8 mph (SW)    
Max Wind Speed 13 mph    
Max Gust Speed 20 mph    
Visibility 10 miles    
Events      
T = Trace of Precipitation, MM = Missing Value Source: NWS Daily Summary

Daily Weather History Graph

Daily Weather History Graph

Search for Another Location

Airport:

Trip Planner

Search our weather history database for the weather conditions in past years. The results will help you decide how hot, cold, wet, or windy it might be!

Date:

Astronomy

Feb. 04, 2013 Rise Set
Actual Time 7:50 AM EST 6:08 PM EST
Civil Twilight 7:21 AM EST 6:36 PM EST
Nautical Twilight 6:49 AM EST 7:08 PM EST
Astronomical Twilight 6:18 AM EST 7:40 PM EST
Moon 2:25 AM EST (2/4) 12:31 PM EST (2/4)
Length of Visible Light 11h 14m
Length of Day
10h 17m
Last Quarter, 37% of the Moon is Illuminated
Feb 4
Last Quarter
Feb 10
New
Feb 17
First Quarter
Feb 25
Full
Mar 4
Last Quarter

Hourly Weather History & Observations

Time (EST) Temp. Windchill Dew Point Humidity Pressure Visibility Wind Dir Wind Speed Gust Speed Precip Events Conditions
12:15 AM 20.3 °F 11.5 °F 11.8 °F 70% 30.07 in 10.0 mi SW 6.9 mph - N/A   Overcast
12:35 AM 19.9 °F 11.1 °F 11.7 °F 70% 30.07 in 10.0 mi SW 6.9 mph - N/A   Mostly Cloudy
12:55 AM 21.2 °F 12.6 °F 12.9 °F 70% 30.07 in 10.0 mi SW 6.9 mph - N/A   Mostly Cloudy
1:15 AM 22.1 °F 13.7 °F 12.9 °F 68% 30.07 in 10.0 mi SW 6.9 mph - N/A   Overcast
1:35 AM 22.1 °F 14.7 °F 13.1 °F 68% 30.06 in 10.0 mi SW 5.8 mph - N/A   Overcast
1:55 AM 21.9 °F 14.5 °F 13.5 °F 70% 30.06 in 10.0 mi SW 5.8 mph - N/A   Overcast
2:15 AM 21.9 °F 15.7 °F 13.6 °F 70% 30.05 in 10.0 mi SSW 4.6 mph - N/A   Overcast
2:35 AM 21.7 °F 17.0 °F 13.1 °F 69% 30.05 in 10.0 mi SSW 3.5 mph - N/A   Mostly Cloudy
2:55 AM 21.7 °F 15.5 °F 13.5 °F 70% 30.06 in 10.0 mi SW 4.6 mph - N/A   Mostly Cloudy
3:15 AM 21.9 °F 14.5 °F 13.1 °F 69% 30.05 in 10.0 mi SSW 5.8 mph - N/A   Overcast
3:35 AM 21.9 °F 14.5 °F 13.5 °F 70% 30.04 in 10.0 mi SSW 5.8 mph - N/A   Overcast
3:55 AM 22.1 °F 14.7 °F 13.8 °F 70% 30.03 in 10.0 mi SSW 5.8 mph - N/A   Overcast
4:15 AM 22.5 °F 15.1 °F 13.6 °F 69% 30.01 in 10.0 mi SSE 5.8 mph - N/A   Overcast
5:55 AM 23.0 °F 14.7 °F 14.9 °F 71% 29.96 in 10.0 mi SSE 6.9 mph - N/A   Overcast
6:15 AM 23.2 °F 15.0 °F 15.3 °F 72% 29.95 in 10.0 mi SSE 6.9 mph - N/A   Overcast
6:35 AM 23.7 °F 15.6 °F 15.4 °F 71% 29.94 in 10.0 mi South 6.9 mph - N/A   Overcast
6:55 AM 24.1 °F 14.4 °F 15.8 °F 71% 29.94 in 10.0 mi South 9.2 mph - N/A   Overcast
7:15 AM 24.8 °F 15.3 °F 16.5 °F 71% 29.93 in 10.0 mi SSE 9.2 mph - N/A   Overcast
7:35 AM 25.0 °F 15.5 °F 16.7 °F 71% 29.93 in 10.0 mi SSE 9.2 mph - N/A   Overcast
7:55 AM 25.2 °F 14.4 °F 16.7 °F 70% 29.92 in 10.0 mi SSE 11.5 mph - N/A   Overcast
8:15 AM 24.8 °F 13.4 °F 16.7 °F 71% 29.90 in 10.0 mi SSE 12.7 mph - N/A   Overcast
8:35 AM 24.8 °F 14.0 °F 16.7 °F 71% 29.89 in 10.0 mi SSE 11.5 mph - N/A   Overcast
8:55 AM 25.3 °F 15.3 °F 16.7 °F 70% 29.90 in 10.0 mi SSE 10.4 mph - N/A   Overcast
9:15 AM 25.7 °F 16.4 °F 16.3 °F 68% 29.89 in 10.0 mi South 9.2 mph - N/A   Overcast
9:35 AM 26.2 °F 16.4 °F 16.0 °F 65% 29.89 in 10.0 mi South 10.4 mph - N/A   Overcast
9:55 AM 26.6 °F 15.7 °F 15.4 °F 63% 29.87 in 10.0 mi South 12.7 mph - N/A   Overcast
10:15 AM 26.8 °F 16.5 °F 15.8 °F 63% 29.87 in 10.0 mi South 11.5 mph 19.6 mph N/A   Overcast
10:35 AM 27.1 °F 17.5 °F 16.5 °F 64% 29.86 in 10.0 mi South 10.4 mph 16.1 mph N/A   Overcast
10:55 AM 27.9 °F 19.1 °F 17.2 °F 64% 29.85 in 10.0 mi South 9.2 mph - N/A   Overcast
11:15 AM 28.8 °F 19.5 °F 17.6 °F 63% 29.85 in 10.0 mi South 10.4 mph - N/A   Overcast
11:35 AM 29.1 °F 19.4 °F 18.1 °F 64% 29.84 in 10.0 mi South 11.5 mph - N/A   Overcast
11:55 AM 30.2 °F 21.9 °F 18.7 °F 62% 29.84 in 10.0 mi South 9.2 mph - N/A   Overcast
12:15 PM 30.9 °F 23.5 °F 19.2 °F 62% 29.84 in 10.0 mi South 8.1 mph - N/A   Overcast
12:35 PM 32.0 °F 24.8 °F 19.9 °F 61% 29.83 in 10.0 mi South 8.1 mph - N/A   Overcast
12:55 PM 32.9 °F 24.7 °F 20.3 °F 60% 29.83 in 10.0 mi SSW 10.4 mph - N/A   Overcast
1:15 PM 33.6 °F 26.8 °F 20.8 °F 59% 29.82 in 10.0 mi SSW 8.1 mph - N/A   Overcast
1:35 PM 34.2 °F 25.7 °F 23.0 °F 64% 29.81 in 10.0 mi SSW 11.5 mph - N/A   Overcast
1:55 PM 34.2 °F 26.2 °F 25.2 °F 70% 29.80 in 10.0 mi SW 10.4 mph - N/A   Overcast
2:15 PM 34.9 °F 26.2 °F 26.4 °F 71% 29.80 in 10.0 mi SW 12.7 mph - N/A   Overcast
2:35 PM 34.9 °F 26.6 °F 26.8 °F 72% 29.78 in 10.0 mi SSW 11.5 mph - N/A   Overcast
2:55 PM 35.2 °F 27.1 °F 27.1 °F 72% 29.79 in 10.0 mi SW 11.5 mph - N/A   Overcast
3:15 PM 35.6 °F 29.9 °F 27.5 °F 72% 29.79 in 10.0 mi WSW 6.9 mph - N/A   Overcast
3:35 PM 35.8 °F 29.4 °F 28.0 °F 73% 29.79 in 10.0 mi WSW 8.1 mph - N/A   Overcast
3:55 PM 36.7 °F 29.4 °F 28.2 °F 71% 29.79 in 10.0 mi WSW 10.4 mph 16.1 mph N/A   Mostly Cloudy
4:15 PM 36.9 °F 31.4 °F 28.4 °F 71% 29.79 in 10.0 mi WSW 6.9 mph - N/A   Clear
4:35 PM 37.0 °F 29.8 °F 28.2 °F 70% 29.79 in 10.0 mi WSW 10.4 mph - N/A   Clear
4:55 PM 36.9 °F 32.2 °F 28.2 °F 71% 29.80 in 10.0 mi West 5.8 mph - N/A   Clear
5:15 PM 36.5 °F 32.7 °F 28.0 °F 71% 29.80 in 10.0 mi West 4.6 mph - N/A   Scattered Clouds
5:35 PM 36.0 °F 33.3 °F 27.7 °F 72% 29.80 in 10.0 mi WNW 3.5 mph - N/A   Mostly Cloudy
5:55 PM 35.6 °F 32.8 °F 27.0 °F 71% 29.80 in 10.0 mi NW 3.5 mph - N/A   Scattered Clouds
6:15 PM 34.7 °F - 26.6 °F 72% 29.79 in 10.0 mi Calm Calm - N/A   Clear
6:35 PM 33.6 °F - 26.2 °F 74% 29.79 in 10.0 mi Calm Calm - N/A   Clear
6:55 PM 32.0 °F - 26.4 °F 80% 29.81 in 10.0 mi Calm Calm - N/A   Clear
7:15 PM 31.5 °F 24.9 °F 26.4 °F 82% 29.83 in 10.0 mi North 6.9 mph - N/A   Scattered Clouds
7:35 PM 32.0 °F 25.6 °F 25.7 °F 78% 29.84 in 10.0 mi North 6.9 mph - N/A   Scattered Clouds
7:55 PM 32.0 °F 25.6 °F 25.9 °F 78% 29.85 in 10.0 mi North 6.9 mph - N/A   Mostly Cloudy
8:15 PM 31.3 °F 24.7 °F 25.3 °F 79% 29.85 in 10.0 mi North 6.9 mph - N/A   Scattered Clouds
8:35 PM 31.5 °F 23.5 °F 24.8 °F 76% 29.87 in 10.0 mi North 9.2 mph - N/A   Mostly Cloudy
8:55 PM 31.5 °F 24.2 °F 24.8 °F 76% 29.88 in 10.0 mi North 8.1 mph - N/A   Overcast
9:15 PM 31.1 °F 22.4 °F 23.4 °F 73% 29.88 in 10.0 mi North 10.4 mph - N/A   Overcast
9:35 PM 30.9 °F 23.5 °F 23.2 °F 73% 29.88 in 10.0 mi North 8.1 mph - N/A   Overcast
9:55 PM 30.7 °F 24.1 °F 23.5 °F 75% 29.89 in 10.0 mi North 6.9 mph - N/A   Overcast
10:15 PM 30.4 °F 22.2 °F 23.5 °F 76% 29.89 in 10.0 mi North 9.2 mph - N/A   Overcast
10:35 PM 29.8 °F 21.5 °F 22.8 °F 75% 29.89 in 10.0 mi North 9.2 mph - N/A   Overcast
10:55 PM 29.3 °F 21.5 °F 22.8 °F 77% 29.88 in 10.0 mi North 8.1 mph - N/A   Overcast
11:15 PM 29.3 °F 21.5 °F 23.4 °F 78% 29.89 in 10.0 mi North 8.1 mph - N/A   Overcast
11:35 PM 29.1 °F 21.3 °F 23.0 °F 78% 29.90 in 10.0 mi North 8.1 mph - N/A   Overcast
11:55 PM 28.6 °F 21.5 °F 22.5 °F 78% 29.89 in 10.0 mi North 6.9 mph - N/A   Overcast